FW9285 Weather Reports


Display with metric or nautical units.
time (UTC)temp
F
wind
direction
speed
MPH
gust
MPH
rain 1hr
in
rain 24hr
in
rain mn
in
humidity
%
barometer
mb
20260831040659 89 273 7.0 13.0 0.00 0.57 0.00 48 1010.7
20260831035702 89 284 4.0 21.0 0.00 0.57 0.00 47 1010.6
20260831034659 91 250 6.0 15.0 0.00 0.57 0.00 46 1010.5
20260831033659 92 281 8.0 15.0 0.00 0.57 0.00 43 1009.9
20260831032659 94 333 1.0 13.0 0.00 0.57 0.00 42 1009.8
20260831031658 96 232 5.0 12.0 0.00 0.57 0.00 43 1009.4
20260831030659 96 234 2.0 2.0 0.00 0.57 0.00 41 1009.0
20260831025659 97 176 2.0 2.0 0.00 0.57 0.00 40 1008.8
20260831023659 96 158 0.0 2.0 0.00 0.57 0.00 41 1008.6
20260831022659 97 197 0.0 3.0 0.00 0.57 0.00 43 1008.3
20260831021659 97 194 0.0 3.0 0.00 0.57 0.00 41 1008.2
20260831020658 98 181 3.0 4.0 0.00 0.57 0.00 38 1008.0
20260831015659 98 177 1.0 4.0 0.00 0.57 0.00 38 1008.2
20260831014659 99 156 3.0 3.0 0.00 0.57 0.00 37 1007.9
20260831013659 99 155 1.0 5.0 0.00 0.57 0.00 37 1008.0
20260831012659 100 162 2.0 4.0 0.00 0.57 0.00 35 1007.9
20260831011700 100 147 1.0 4.0 0.00 0.57 0.00 36 1007.7
20260831010700 101 142 0.0 4.0 0.00 0.57 0.00 35 1007.9
20260831004659 102 166 2.0 2.0 0.00 0.57 0.00 34 1008.0
20260831003659 100 186 0.0 3.0 0.00 0.57 0.00 36 1008.2
20260831002700 100 148 1.0 3.0 0.00 0.57 0.00 36 1008.1
20260831001659 101 230 0.0 2.0 0.00 0.57 0.00 35 1008.2
20260831000659 102 164 0.0 4.0 0.00 0.57 0.00 34 1007.9
20260830235659 102 214 0.0 4.0 0.00 0.57 0.00 34 1008.0
20260830234659 103 29 0.0 4.0 0.00 0.57 0.00 34 1008.2
20260830233659 101 104 4.0 6.0 0.00 0.57 0.00 35 1008.4
20260830232659 102 74 2.0 7.0 0.00 0.57 0.00 34 1008.5
20260830230659 103 36 2.0 6.0 0.00 0.57 0.00 34 1008.6
20260830225659 103 269 3.0 5.0 0.00 0.57 0.00 33 1008.7
20260830224659 101 352 3.0 6.0 0.00 0.57 0.00 35 1009.2
20260830223659 102 19 2.0 10.0 0.00 0.57 0.00 35 1009.4
20260830222659 104 135 0.0 4.0 0.00 0.57 0.00 33 1009.3
20260830215659 103 147 2.0 7.0 0.00 0.57 0.00 34 1010.1
20260830213659 103 161 2.0 4.0 0.00 0.57 0.00 35 1010.4
20260830212659 102 117 2.0 6.0 0.00 0.57 0.00 35 1010.5
20260830210659 101 136 0.0 5.0 0.00 0.57 0.00 36 1011.1
20260830205659 101 184 3.0 6.0 0.00 0.57 0.00 35 1011.1
20260830204659 101 10 2.0 6.0 0.00 0.57 0.00 35 1011.5
20260830203659 100 232 3.0 6.0 0.00 0.57 0.00 35 1011.8
20260830200659 101 160 4.0 5.0 0.00 0.57 0.00 35 1012.0
20260830194659 99 50 0.0 6.0 0.00 0.57 0.00 38 1012.3
20260830193658 98 349 1.0 6.0 0.00 0.57 0.00 38 1012.7
20260830192658 98 323 2.0 6.0 0.00 0.57 0.00 38 1012.6
20260830191659 100 247 3.0 5.0 0.00 0.57 0.00 38 1012.7
20260830190700 98 115 2.0 6.0 0.00 0.57 0.00 39 1012.9
20260830185659 99 315 2.0 5.0 0.00 0.57 0.00 39 1013.2
20260830184659 99 151 2.0 5.0 0.00 0.57 0.00 39 1013.4
20260830183700 96 336 0.0 4.0 0.00 0.57 0.00 41 1013.8
20260830182659 97 135 2.0 6.0 0.00 0.57 0.00 41 1013.6
20260830181700 95 354 4.0 6.0 0.00 0.57 0.00 42 1013.6
20260830180659 96 206 0.0 5.0 0.00 0.57 0.00 43 1013.9
20260830175659 97 151 2.0 6.0 0.00 0.57 0.00 42 1014.3
20260830172659 95 168 2.0 6.0 0.00 0.57 0.00 44 1014.5
20260830171702 95 147 2.0 5.0 0.00 0.57 0.00 45 1014.3
20260830170659 95 130 3.0 5.0 0.00 0.57 0.00 45 1014.3
20260830165659 94 141 2.0 5.0 0.00 0.57 0.00 45 1014.3
20260830164659 93 165 3.0 5.0 0.00 0.57 0.00 47 1014.3
20260830163659 92 177 5.0 6.0 0.00 0.57 0.00 46 1014.4
20260830161659 91 110 4.0 5.0 0.00 0.57 0.00 50 1014.4
20260830160659 90 185 4.0 4.0 0.00 0.57 0.00 51 1014.4
20260830155658 91 121 4.0 4.0 0.00 0.57 0.00 51 1014.2
20260830154700 90 179 2.0 4.0 0.00 0.57 0.00 51 1014.5
20260830153659 89 151 1.0 4.0 0.00 0.57 0.00 54 1014.2
20260830152700 89 225 1.0 3.0 0.00 0.57 0.00 54 1014.3
20260830151659 87 235 1.0 4.0 0.00 0.57 0.00 57 1014.1
20260830150659 86 262 1.0 5.0 0.00 0.57 0.00 58 1014.4
20260830144700 83 265 2.0 4.0 0.00 0.57 0.00 64 1014.5
20260830143659 83 117 0.0 3.0 0.00 0.57 0.00 62 1014.3
20260830141659 80 225 2.0 3.0 0.00 0.57 0.00 67 1014.1
20260830140659 80 249 2.0 3.0 0.00 0.57 0.00 66 1014.2
20260830135659 80 201 1.0 3.0 0.00 0.57 0.00 67 1014.3
20260830134659 80 216 2.0 4.0 0.00 0.57 0.00 66 1014.2
20260830133659 80 203 3.0 4.0 0.00 0.57 0.00 66 1013.8
20260830132658 80 214 2.0 5.0 0.00 0.57 0.00 66 1013.9
20260830131700 81 191 3.0 8.0 0.00 0.57 0.00 63 1013.5
20260830130659 82 180 4.0 7.0 0.00 0.57 0.00 60 1013.4
20260830124659 82 209 3.0 5.0 0.00 0.57 0.00 58 1013.1
20260830123659 82 175 2.0 5.0 0.00 0.57 0.00 60 1012.7
20260830122700 82 171 0.0 6.0 0.00 0.57 0.00 60 1012.7
20260830121659 82 194 3.0 6.0 0.00 0.57 0.00 60 1012.6
20260830120659 83 141 4.0 7.0 0.00 0.57 0.00 58 1012.5
20260830114659 82 150 2.0 6.0 0.00 0.57 0.00 60 1012.5
20260830113659 82 185 2.0 5.0 0.00 0.57 0.00 60 1012.4
20260830111659 83 226 4.0 6.0 0.00 0.57 0.00 58 1012.5
20260830110659 83 160 3.0 7.0 0.00 0.57 0.00 56 1012.6
20260830105659 83 167 3.0 6.0 0.00 0.57 0.00 56 1012.5
20260830104700 82 160 3.0 4.0 0.00 0.57 0.00 58 1012.4
20260830103659 82 216 2.0 3.0 0.00 0.57 0.00 59 1012.3
20260830102700 82 163 2.0 4.0 0.00 0.57 0.00 59 1012.1
20260830101702 82 236 0.0 4.0 0.00 0.57 0.00 61 1012.1
20260830095659 80 170 1.0 4.0 0.00 0.57 0.00 65 1011.9
20260830094659 80 149 2.0 3.0 0.00 0.57 0.00 68 1011.8
20260830093700 79 210 0.0 3.0 0.00 0.57 0.00 71 1011.8
20260830092659 80 181 2.0 3.0 0.00 0.57 0.00 67 1011.6
20260830090659 80 234 1.0 4.0 0.00 0.57 0.00 67 1011.1
20260830085659 81 219 2.0 5.0 0.00 0.57 0.00 65 1011.1
20260830084659 82 223 2.0 8.0 0.00 0.57 0.00 63 1011.2
20260830083659 81 136 4.0 7.0 0.00 0.57 0.00 63 1010.8
20260830082701 81 154 4.0 6.0 0.00 0.57 0.00 64 1010.7
20260830080659 81 202 0.0 5.0 0.00 0.57 0.00 66 1010.7
20260830074659 81 157 2.0 7.0 0.00 0.57 0.00 65 1010.7
20260830072700 80 153 1.0 4.0 0.00 0.57 0.00 70 1010.5
20260830071659 79 103 2.0 4.0 0.00 0.57 0.00 75 1010.7
20260830070659 79 125 3.0 3.0 0.00 0.57 0.00 75 1010.4
20260830065700 79 168 0.0 4.0 0.00 0.57 0.57 75 1010.8
20260830064659 79 215 0.0 3.0 0.06 0.57 0.57 78 1010.6
20260830063702 79 173 1.0 7.0 0.18 0.57 0.57 75 1010.7
20260830062659 77 202 1.0 5.0 0.28 0.57 0.57 83 1011.0
20260830061700 76 204 2.0 8.0 0.35 0.57 0.57 82 1011.3
20260830060659 76 185 2.0 11.0 0.37 0.57 0.57 81 1011.7
20260830055659 74 128 5.0 7.0 0.42 0.17 0.57 88 1012.7
20260830054658 74 184 2.0 8.0 0.33 0.17 0.48 89 1012.8
20260830053659 74 144 5.0 9.0 0.29 0.17 0.39 88 1012.5
20260830052659 76 104 3.0 13.0 0.30 0.17 0.30 85 1012.8
20260830050659 76 158 2.0 15.0 0.20 0.17 0.20 87 1013.9
20260830045703 78 136 4.0 8.0 0.16 0.00 0.16 84 1013.0
20260830044702 77 147 2.0 19.0 0.16 0.00 0.16 88 1013.8
20260830043658 77 153 8.0 14.0 0.11 0.00 0.11 86 1012.2